EW6020 Weather Reports


time (UTC)temp
C
wind
direction
speed
KPH
gust
KPH
rain 1hr
cm
rain 24hr
cm
rain mn
cm
humidity
%
barometer
mb
20260504081507 15 179 6.4 9.7 0.00 0.00 0.00 75 1006.5
20260504044543 25 178 1.6 6.4 0.00 0.00 0.00 40 1005.4
20260504043048 26 178 1.6 6.4 0.00 0.00 0.00 37 1005.4
20260504041544 26 177 3.2 11.3 0.00 0.00 0.00 36 1005.3
20260504040045 26 178 1.6 8.0 0.00 0.00 0.00 34 1005.1
20260504034547 25 178 1.6 4.8 0.00 0.00 0.00 35 1004.9
20260504033039 26 177 0.0 0.0 0.00 0.00 0.00 38 1004.8
20260504031542 26 176 0.0 3.2 0.00 0.00 0.00 38 1004.7
20260504030039 28 178 0.0 0.0 0.00 0.00 0.00 33 1004.6
20260504024545 30 177 0.0 0.0 0.00 0.00 0.00 29 1004.4
20260504023037 31 178 0.0 1.6 0.00 0.00 0.00 25 1004.4
20260504021539 30 177 0.0 4.8 0.00 0.00 0.00 25 1004.4
20260504020038 31 176 3.2 4.8 0.00 0.00 0.00 24 1004.5
20260504014537 31 178 0.0 4.8 0.00 0.00 0.00 25 1004.5
20260504013039 31 178 3.2 9.7 0.00 0.00 0.00 22 1004.6
20260504011529 31 178 0.0 11.3 0.00 0.00 0.00 23 1004.8
20260504010027 30 177 8.0 12.9 0.00 0.00 0.00 23 1004.9
20260504004527 31 177 6.4 16.1 0.00 0.00 0.00 21 1005.1
20260504003023 30 178 12.9 20.9 0.00 0.00 0.00 21 1005.2
20260504001530 30 176 12.9 20.9 0.00 0.00 0.00 22 1005.2
20260504000022 30 177 9.7 22.5 0.00 0.00 0.00 26 1005.1
20260503234518 30 177 14.5 22.5 0.00 0.00 0.00 23 1005.4
20260503233019 30 177 12.9 27.4 0.00 0.00 0.00 31 1005.5
20260503231515 30 176 14.5 19.3 0.00 0.00 0.00 27 1005.7
20260503230031 30 176 14.5 20.9 0.00 0.00 0.00 27 1005.9
20260503224513 31 176 9.7 16.1 0.00 0.00 0.00 28 1006.1
20260503223008 31 177 6.4 11.3 0.00 0.00 0.00 32 1006.3
20260503221507 31 176 9.7 14.5 0.00 0.00 0.00 28 1006.6
20260503220003 31 156 0.0 12.9 0.00 0.00 0.00 28 1006.8
20260503214559 30 177 9.7 17.7 0.00 0.00 0.00 29 1007.0
20260503213102 30 177 4.8 14.5 0.00 0.00 0.00 30 1007.1
20260503211556 30 178 9.7 17.7 0.00 0.00 0.00 30 1007.3
20260503210054 30 178 4.8 17.7 0.00 0.00 0.00 30 1007.5
20260503204611 29 177 14.5 20.9 0.00 0.00 0.00 32 1007.6
20260503203047 29 176 3.2 19.3 0.00 0.00 0.00 33 1007.9
20260503201544 28 178 6.4 19.3 0.00 0.00 0.00 37 1007.9
20260503200041 28 176 8.0 12.9 0.00 0.00 0.00 38 1008.2
20260503194541 28 177 3.2 16.1 0.00 0.00 0.00 39 1008.4
20260503193044 27 177 1.6 11.3 0.00 0.00 0.00 41 1008.5
20260503191600 26 176 6.4 17.7 0.00 0.00 0.00 41 1008.7
20260503190033 26 178 8.0 16.1 0.00 0.00 0.00 43 1008.9
20260503184525 25 176 6.4 14.5 0.00 0.00 0.00 43 1009.0
20260503183023 25 178 8.0 17.7 0.00 0.00 0.00 43 1009.1
20260503181519 25 179 4.8 17.7 0.00 0.00 0.00 47 1009.2
20260503180019 23 177 11.3 19.3 0.00 0.00 0.00 49 1009.3
20260503174514 23 176 6.4 16.1 0.00 0.00 0.00 51 1009.2
20260503173011 23 179 4.8 17.7 0.00 0.00 0.00 53 1009.3
20260503171510 22 162 9.7 22.5 0.00 0.00 0.00 52 1009.4
20260503160106 17 177 1.6 4.8 0.00 0.00 0.00 84 1009.7
20260503100105 12 150 0.0 0.0 0.00 0.00 0.00 93 1010.1